Simultaneous Nadir Overpasses (SNOs) Predictions

Prediction of SNOs between METOP-A and NOAA-19 Satellite Orbit:

Table of predicted SNOs for the next 14.0 days since TLE Epoch: 1/10/2020
Index Date (METOP-A) Time (METOP-A) Lat,Lon (METOP-A) SZA (METOP-A ) Date (NOAA-19) Time (NOAA-19) Lat,Lon (NOAA-19) SZA (NOAA-19 ) Distance(km) Time Diff (sec)
1 01/11/2020 01:39:13 80.24, 168.57 102.27 01/11/2020 01:37:58 80.22, 168.65 102.25 2.02 75
2 01/11/2020 02:29:54 -80.25, -23.99 77.72 01/11/2020 02:28:53 -80.23, -24.12 77.76 3.18 61
3 01/11/2020 03:20:35 80.23, 143.11 102.25 01/11/2020 03:19:59 80.23, 143.05 102.25 1.27 36
4 01/11/2020 04:11:16 -80.24, -49.46 77.75 01/11/2020 04:10:53 -80.21, -49.39 77.77 2.83 23
5 01/11/2020 05:01:57 80.21, 117.64 102.22 01/11/2020 05:01:59 80.22, 117.78 102.23 2.53 2
6 01/11/2020 05:52:38 -80.22, -74.92 77.78 01/11/2020 05:52:54 -80.22, -74.99 77.78 1.34 16
7 01/11/2020 06:43:19 80.20, 92.18 102.19 01/11/2020 06:44:00 80.22, 92.18 102.22 2.37 41
8 01/11/2020 07:34:00 -80.21,-100.39 77.80 01/11/2020 07:34:54 -80.20,-100.26 77.80 2.51 54
9 01/22/2020 02:52:38 80.24, 150.10 100.16 01/22/2020 02:51:41 80.25, 150.28 100.16 3.49 57
10 01/22/2020 03:43:19 -80.26, -42.42 79.84 01/22/2020 03:42:38 -80.26, -42.58 79.85 3.16 41
11 01/22/2020 04:34:00 80.23, 124.63 100.13 01/22/2020 04:33:42 80.26, 124.67 100.15 2.77 18
12 01/22/2020 05:24:41 -80.25, -67.88 79.87 01/22/2020 05:24:38 -80.24, -67.86 79.87 0.67 3
13 01/22/2020 06:15:21 80.25, 99.47 100.13 01/22/2020 06:15:42 80.24, 99.40 100.13 1.59 21
14 01/22/2020 07:06:03 -80.24, -93.35 79.90 01/22/2020 07:06:39 -80.25, -93.46 79.88 2.55 36
15 01/22/2020 07:56:43 80.24, 74.00 100.10 01/22/2020 07:57:42 80.23, 74.12 100.10 2.43 59




NCC Satellite Simultaneous Nadir Overpasses (SNOs) Prediction Service
